Regional Weather Roundup
Issued by NWS

Home | Current Version | Previous Version | Text Only | Print | Product List | Glossary Off
Versions: 1 2 3 4 5 6 7 8 9 10 11 12 13 14 15 16 17 18 19 20 21 22 23 24 25 26 27 28 29 30 31 32 33 34 35 36 37 38 39 40 41 42 43 44 45 46 47 48 49 50

000
ASUS43 KLMK 280810
RWRKY
KENTUCKY REGIONAL WEATHER ROUNDUP
NATIONAL WEATHER SERVICE LOUISVILLE KY
300 AM EST TUE FEB 28 2017

NOTE "FAIR" INDICATES FEW OR NO CLOUDS BELOW 12,000 FEET
WITH NO SIGNIFICANT WEATHER AND/OR OBSTRUCTIONS TO VISIBILITY.

KYZ001>023-026-027-061>063-070>075-280900-
WESTERN AND SOUTH CENTRAL KENTUCKY

CITY           SKY/WX    TMP DP  RH WIND       PRES   REMARKS
PADUCAH        CLOUDY    56  49  77 SW5       30.04R
HENDERSON      MOCLDY    52  45  76 S13       30.03F
OWENSBORO      LGT RAIN  51  48  89 S10       30.08F
HOPKINSVILLE   CLOUDY    53  49  83 S7        30.07F
BOWLING GREEN  CLOUDY    53  47  79 S9        30.11F
GLASGOW        PTCLDY    51  45  79 S8        30.11F
$$

KYZ024-025-028>034-038-045-046-053-280900-
NORTH CENTRAL KENTUCKY

CITY           SKY/WX    TMP DP  RH WIND       PRES   REMARKS
LOUISVILLE/SDF CLOUDY    50  42  74 SE10      30.09F
LOUISVILLE/LOU CLOUDY    49  42  77 SE8       30.10F
FORT KNOX        N/A    N/A N/A N/A MISG        N/A
$$

KYZ035>037-039>044-047>052-055>060-089>105-280900-
NORTHEAST KENTUCKY

CITY           SKY/WX    TMP DP  RH WIND       PRES   REMARKS
LEXINGTON      CLEAR     46  40  79 SE8       30.13F
COVINGTON      CLOUDY    44  39  82 S9        30.12F
FRANKFORT      PTCLDY    45  38  76 SE5       30.12F
$$

KYZ054-064>069-076>088-106>120-280900-
SOUTHEAST KENTUCKY

CITY           SKY/WX    TMP DP  RH WIND       PRES   REMARKS
JACKSON        CLEAR     49  34  56 VRB6      30.18F
LONDON         CLEAR     39  33  79 CALM      30.18F
SOMERSET       CLEAR     43  41  93 S5        30.16F
MIDDLESBORO    CLEAR     37  35  93 CALM      30.24F
MONTICELLO     MOSUNNY   50  45  83 E8        30.16
$$




USA.gov is the U.S. government's official web portal to all federal, state and local government web resources and services.